• Join FlightAware (Why Join?)
  • Login
  • US Flag 
07:34PM EDT


 

Airport Tracker/Info


-or-


 

Live Flight TrackerFlight Track Log ✈ AWE305 ✈ 29-Feb-2012 ✈ KPHX - KCLT

Flight Track Log - Related Links

Times and Time Zones

All times are in EST time to prevent confusion due to time zone crossing. See the AWE305 flight status page for this flight to view local times or setup timezone preferences in your user account.

Time Position Orientation Groundspeed Altitude Reporting Facility
EST Latitude Longitude Course Direction KTS MPH feet Rate Location/Type
02:31AM 33.4333 -111.9667 90° East 178 205 2,800  Level Phoenix TRACON
02:32AM 33.4333 -111.9167 90° East 196 226 3,700 1,320 Climbing Phoenix TRACON
02:33AM 33.4333 -111.8500 74° East 257 296 5,100 1,740 Climbing Phoenix TRACON
02:35AM 33.4742 -111.6825 71° East 291 335 8,800 1,860 Climbing Albuquerque Center
02:36AM 33.5028 -111.5842 71° East 296 341 10,500 1,320 Climbing Albuquerque Center
02:37AM 33.5336 -111.4736 72° East 317 365 11,500 1,200 Climbing Albuquerque Center
02:38AM 33.5669 -111.3508 72° East 354 407 12,900 1,500 Climbing Albuquerque Center
02:39AM 33.6025 -111.2203 71° East 387 445 14,600 1,620 Climbing Albuquerque Center
02:40AM 33.6403 -111.0850 72° East 408 470 16,200 1,560 Climbing Albuquerque Center
02:41AM 33.6778 -110.9444 72° East 423 487 17,800 1,380 Climbing Albuquerque Center
02:42AM 33.7175 -110.8011 73° East 435 501 19,000 1,200 Climbing Albuquerque Center
02:43AM 33.7550 -110.6553 71° East 446 513 20,200 960 Climbing Albuquerque Center
02:44AM 33.7897 -110.5319 74° East 458 527 21,000 960 Climbing Albuquerque Center
02:45AM 33.8317 -110.3608 72° East 469 540 22,200 1,140 Climbing Albuquerque Center
02:46AM 33.8731 -110.2050 72° East 481 554 23,300 1,020 Climbing Albuquerque Center
02:47AM 33.9164 -110.0436 72° East 488 562 24,300 840 Climbing Albuquerque Center
02:48AM 33.9597 -109.8775 73° East 499 574 25,000 720 Climbing Albuquerque Center
02:49AM 34.0028 -109.7108 72° East 510 587 25,800 900 Climbing Albuquerque Center
02:50AM 34.0475 -109.5442 73° East 521 600 26,800 960 Climbing Albuquerque Center
02:51AM 34.0969 -109.3525 73° East 521 600 27,800 900 Climbing Albuquerque Center
02:52AM 34.1392 -109.1828 73° East 526 605 28,600 660 Climbing Albuquerque Center
02:53AM 34.1833 -109.0106 74° East 526 605 29,200 720 Climbing Albuquerque Center
02:54AM 34.2253 -108.8356 72° East 531 611 30,100 780 Climbing Albuquerque Center
02:55AM 34.2711 -108.6656 73° East 531 611 30,800 420 Climbing Albuquerque Center
02:56AM 34.3167 -108.4878 74° East 531 611 31,000 60 Climbing Albuquerque Center
02:57AM 34.3536 -108.3297 75° East 531 611 31,000  Level Albuquerque Center
02:58AM 34.3947 -108.1464 73° East 542 624 31,000  Level Albuquerque Center
02:59AM 34.4394 -107.9681 73° East 547 629 31,000  Level Albuquerque Center
03:00AM 34.4842 -107.7844 73° East 553 636 31,000  Level Albuquerque Center
03:01AM 34.5283 -107.6031 74° East 553 636 31,000  Level Albuquerque Center
03:02AM 34.5725 -107.4167 73° East 558 642 31,000  Level Albuquerque Center
03:03AM 34.6225 -107.2147 74° East 565 650 31,000  Level Albuquerque Center
03:04AM 34.6639 -107.0328 75° East 560 644 31,000  Level Albuquerque Center
03:05AM 34.7050 -106.8458 73° East 565 650 31,000  Level Albuquerque Center
03:06AM 34.7500 -106.6636 75° East 571 657 31,000  Level Albuquerque Center
03:07AM 34.7925 -106.4761 74° East 576 663 31,000  Level Albuquerque Center
03:08AM 34.8369 -106.2883 75° East 571 657 31,000  Level Albuquerque Center
03:09AM 34.8728 -106.1233 74° East 571 657 31,000  Level Albuquerque Center
03:10AM 34.9167 -105.9350 75° East 571 657 31,000  Level Albuquerque Center
03:11AM 34.9581 -105.7417 75° East 576 663 31,000  Level Albuquerque Center
03:12AM 34.9992 -105.5533 76° East 576 663 31,000  Level Albuquerque Center
03:13AM 35.0400 -105.3597 74° East 576 663 31,000  Level Albuquerque Center
03:14AM 35.0847 -105.1733 79° East 569 655 31,000  Level Albuquerque Center
03:15AM 35.1144 -104.9794 86° East 576 663 31,000  Level Albuquerque Center
03:16AM 35.1267 -104.7683 87° East 571 657 31,000  Level Albuquerque Center
03:17AM 35.1347 -104.5750 86° East 571 657 31,000  Level Albuquerque Center
03:18AM 35.1447 -104.3842 87° East 566 651 31,000  Level Albuquerque Center
03:19AM 35.1525 -104.1933 85° East 566 651 31,000  Level Albuquerque Center
03:20AM 35.1661 -104.0022 88° East 566 651 31,000  Level Albuquerque Center
03:21AM 35.1714 -103.8292 87° East 561 646 31,000  Level Albuquerque Center
03:22AM 35.1803 -103.6356 87° East 561 646 31,000  Level Albuquerque Center
03:23AM 35.1881 -103.4269 86° East 561 646 31,000  Level Albuquerque Center
03:24AM 35.1983 -103.2308 89° East 566 651 31,000  Level Albuquerque Center
03:25AM 35.2019 -103.0397 88° East 566 651 31,000  Level Albuquerque Center
03:26AM 35.2075 -102.8489 88° East 566 651 31,000  Level Albuquerque Center
03:27AM 35.2125 -102.6578 88° East 566 651 31,000  Level Albuquerque Center
03:28AM 35.2172 -102.4619 88° East 571 657 31,000  Level Albuquerque Center
03:29AM 35.2219 -102.2708 88° East 571 657 31,000  Level Albuquerque Center
03:30AM 35.2281 -102.0797 89° East 571 657 31,000  Level Albuquerque Center
03:31AM 35.2300 -101.8889 88° East 571 657 31,000  Level Albuquerque Center
03:32AM 35.2358 -101.6978 87° East 566 651 31,000  Level Albuquerque Center
03:33AM 35.2436 -101.5167 86° East 581 669 31,000  Level Albuquerque Center
03:34AM 35.2531 -101.3278 87° East 571 657 31,000  Level Albuquerque Center
03:35AM 35.2600 -101.1339 86° East 565 650 31,000  Level Albuquerque Center
03:36AM 35.2706 -100.9422 88° East 565 650 31,000  Level Albuquerque Center
03:37AM 35.2769 -100.7511 88° East 565 650 31,000  Level Albuquerque Center
03:39AM 35.2922 -100.2722 87° East 582 670 31,000  Level Fort Worth Center
03:40AM 35.3006 -100.0819 88° East 571 657 31,000  Level Fort Worth Center
03:41AM 35.3067 -99.8861 87° East 571 657 31,000  Level Fort Worth Center
03:42AM 35.3144 -99.6931 88° East 571 657 31,000  Level Fort Worth Center
03:43AM 35.3200 -99.4997 88° East 571 657 31,000  Level Fort Worth Center
03:44AM 35.3250 -99.3067 88° East 571 657 31,000  Level Fort Worth Center
03:45AM 35.3300 -99.1108 88° East 571 657 31,000  Level Fort Worth Center
03:46AM 35.3347 -98.9150 88° East 571 657 31,000  Level Fort Worth Center
03:47AM 35.3389 -98.7217 88° East 571 657 31,000  Level Fort Worth Center
03:48AM 35.3450 -98.5258 89° East 571 657 31,000  Level Fort Worth Center
03:49AM 35.3464 -98.3553 89° East 558 642 31,000  Level Fort Worth Center
03:50AM 35.3497 -98.1467 89° East 558 642 31,000  Level Fort Worth Center
03:51AM 35.3528 -97.9506 89° East 563 648 31,000  Level Fort Worth Center
03:52AM 35.3556 -97.7572 89° East 563 648 31,000  Level Fort Worth Center
03:53AM 35.3581 -97.5636 88° East 568 654 31,000  Level Fort Worth Center
03:54AM 35.3644 -97.3678 89° East 573 659 31,000  Level Fort Worth Center
03:55AM 35.3664 -97.2125 89° East 567 652 31,000  Level Fort Worth Center
03:56AM 35.3700 -96.9808 89° East 567 652 31,000  Level Fort Worth Center
03:57AM 35.3733 -96.7872 89° East 567 652 31,000  Level Fort Worth Center
03:58AM 35.3764 -96.5936 90° East 567 652 31,000  Level Fort Worth Center
03:59AM 35.3772 -96.3978 88° East 572 658 31,000  Level Fort Worth Center
04:00AM 35.3817 -96.2017 90° East 572 658 31,000  Level Fort Worth Center
04:01AM 35.3817 -96.0056 88° East 572 658 31,000  Level Fort Worth Center
04:02AM 35.3858 -95.8325 89° East 572 658 31,000  Level Fort Worth Center
04:04AM 35.3883 -95.4250 90° East 569 655 31,000  Level Memphis Center
04:05AM 35.3878 -95.2289 89° East 569 655 31,000  Level Memphis Center
04:06AM 35.3892 -95.0278 90° East 580 667 31,000  Level Memphis Center
04:07AM 35.3903 -94.8319 90° East 580 667 31,000  Level Memphis Center
04:08AM 35.3908 -94.6358 91° East 575 662 31,000  Level Memphis Center
04:09AM 35.3889 -94.4422 85° East 569 655 31,000  Level Memphis Center
04:10AM 35.4017 -94.2417 89° East 575 662 31,000  Level Memphis Center
04:11AM 35.4056 -94.0456 93° East 575 662 31,000  Level Memphis Center
04:12AM 35.3986 -93.8567 93° East 570 656 31,000  Level Memphis Center
04:13AM 35.3892 -93.6653 94° East 565 650 31,000  Level Memphis Center
04:14AM 35.3794 -93.4767 94° East 560 644 31,000  Level Memphis Center
04:15AM 35.3692 -93.2953 94° East 551 634 31,000  Level Memphis Center
04:16AM 35.3569 -93.1039 95° East 546 628 31,000  Level Memphis Center
04:17AM 35.3442 -92.9128 95° East 551 634 31,000  Level Memphis Center
04:18AM 35.3297 -92.7011 93° East 564 649 31,000 -60 Level Memphis Center
04:19AM 35.3206 -92.5125 84° East 564 649 30,900 300 Descending Memphis Center
04:20AM 35.3361 -92.3219 81° East 558 642 31,700 600 Climbing Memphis Center
04:21AM 35.3600 -92.1292 85° East 558 642 32,200 600 Climbing Memphis Center
04:22AM 35.3728 -91.9358 82° East 563 648 32,900 360 Climbing Memphis Center
04:23AM 35.3939 -91.7400 84° East 569 655 33,000  Climbing Memphis Center
04:24AM 35.4106 -91.5392 82° East 577 664 33,000  Level Memphis Center
04:25AM 35.4333 -91.3431 84° East 584 672 33,000  Level Memphis Center
04:26AM 35.4514 -91.1447 82° East 584 672 33,000  Level Memphis Center
04:27AM 35.4733 -90.9433 84° East 584 672 33,000  Level Memphis Center
04:28AM 35.4908 -90.7447 85° East 584 672 33,000  Level Memphis Center
04:29AM 35.5058 -90.5483 83° East 584 672 33,000  Level Memphis Center
04:30AM 35.5247 -90.3519 84° East 584 672 33,000  Level Memphis Center
04:31AM 35.5411 -90.1733 84° East 579 666 33,000  Level Memphis Center
04:32AM 35.5575 -89.9742 84° East 579 666 33,000  Level Memphis Center
04:33AM 35.5733 -89.7725 84° East 584 672 33,000  Level Memphis Center
04:34AM 35.5889 -89.5758 84° East 589 678 33,000  Level Memphis Center
04:35AM 35.6061 -89.3536 85° East 589 678 33,000  Level Memphis Center
04:36AM 35.6211 -89.1542 84° East 594 684 33,000  Level Memphis Center
04:37AM 35.6378 -88.9547 86° East 589 678 33,000  Level Memphis Center
04:38AM 35.6478 -88.7603 84° East 581 669 33,000  Level Memphis Center
04:39AM 35.6639 -88.5658 85° East 576 663 33,000  Level Memphis Center
04:40AM 35.6778 -88.3739 85° East 576 663 33,000  Level Memphis Center
04:41AM 35.6911 -88.1767 87° East 576 663 33,000  Level Memphis Center
04:42AM 35.6983 -88.0000 85° East 578 665 33,000  Level Memphis Center
04:43AM 35.7111 -87.8106 85° East 566 651 33,000  Level Memphis Center
04:44AM 35.7258 -87.6131 85° East 566 651 33,000  Level Memphis Center
04:45AM 35.7381 -87.4236 86° East 566 651 33,000  Level Memphis Center
04:46AM 35.7494 -87.2108 86° East 566 651 33,000  Level Memphis Center
04:47AM 35.7611 -87.0183 85° East 566 651 33,000  Level Memphis Center
04:48AM 35.7770 -86.7846 86° East 554 638 33,000  Level FlightAware ADS-B
04:49AM 35.7826 -86.6853 86° East 553 636 33,000  Level FlightAware ADS-B
04:50AM 35.7935 -86.4861 86° East 545 627 33,000  Level FlightAware ADS-B
04:50AM 35.7986 -86.3913 86° East 544 626 33,000  Level FlightAware ADS-B
04:51AM 35.8036 -86.2968 86° East 544 626 33,000  Level FlightAware ADS-B
04:51AM 35.8085 -86.2014 86° East 545 627 33,000  Level FlightAware ADS-B
04:52AM 35.8134 -86.1046 86° East 548 631 33,000  Level FlightAware ADS-B
04:53AM 35.8181 -86.0093 86° East 549 632 33,000  Level FlightAware ADS-B
04:53AM 35.8228 -85.9145 87° East 550 633 33,000  Level FlightAware ADS-B
04:54AM 35.8273 -85.8196 87° East 551 634 33,000  Level FlightAware ADS-B
04:54AM 35.8318 -85.7259 86° East 538 619 33,000  Level FlightAware ADS-B
04:55AM 35.8363 -85.6345 87° East 535 616 33,000  Level FlightAware ADS-B
04:55AM 35.8418 -85.5135 87° East 532 612 33,000  Level FlightAware ADS-B
04:56AM 35.8459 -85.4233 87° East 530 610 33,000  Level FlightAware ADS-B
04:56AM 35.8499 -85.3320 87° East 534 615 33,000 60 Level FlightAware ADS-B
04:57AM 35.8541 -85.2374 87° East 535 616 33,100  Climbing FlightAware ADS-B
04:57AM 35.8580 -85.1454 87° East 537 618 33,000  Descending FlightAware ADS-B
04:58AM 35.8618 -85.0540 87° East 536 617 33,100 60 Climbing FlightAware ADS-B
04:58AM 35.8665 -84.9413 87° East 536 617 33,100  Level FlightAware ADS-B
04:59AM 35.8703 -84.8494 87° East 534 615 33,100  Level FlightAware ADS-B
04:59AM 35.8740 -84.7566 87° East 533 613 33,100 -120 Level FlightAware ADS-B
05:00AM 35.8783 -84.6452 87° East 531 611 33,000 -120 Descending FlightAware ADS-B
05:00AM 35.8819 -84.5542 87° East 529 609 33,000  Level FlightAware ADS-B
05:01AM 35.8853 -84.4608 87° East 527 606 33,000  Level FlightAware ADS-B
05:01AM 35.8886 -84.3708 87° East 524 603 33,000  Level FlightAware ADS-B
05:02AM 35.8922 -84.2707 87° East 524 603 33,000  Level FlightAware ADS-B
05:03AM 35.8963 -84.1549 88° East 522 601 33,000  Level FlightAware ADS-B
05:03AM 35.8993 -84.0655 88° East 521 600 33,000  Level FlightAware ADS-B
05:04AM 35.9024 -83.9723 88° East 521 600 33,000  Level FlightAware ADS-B
05:04AM 35.9044 -83.9106 91° East 522 601 33,000  Level FlightAware ADS-B
05:05AM 35.9036 -83.8209 91° East 523 602 33,000  Level FlightAware ADS-B
05:05AM 35.9020 -83.7361 95° East 524 603 33,000  Level FlightAware ADS-B
05:05AM 35.8968 -83.6605 99° East 526 605 33,000  Level FlightAware ADS-B
05:06AM 35.8850 -83.5668 99° East 527 606 33,000  Level FlightAware ADS-B
05:07AM 35.8721 -83.4681 99° East 526 605 33,000  Level FlightAware ADS-B
05:07AM 35.8600 -83.3760 99° East 528 608 33,000  Level FlightAware ADS-B
05:08AM 35.8476 -83.2837 99° East 527 606 33,000 -420 Level FlightAware ADS-B
05:08AM 35.8357 -83.1943 99° East 528 608 32,600 -1,620 Descending FlightAware ADS-B
05:09AM 35.8226 -83.0978 99° East 529 609 31,300 -2,400 Descending FlightAware ADS-B
05:09AM 35.8082 -82.9906 99° East 527 606 29,800 -2,520 Descending FlightAware ADS-B
05:10AM 35.7955 -82.8973 100° East 526 605 28,500 -2,820 Descending FlightAware ADS-B
05:10AM 35.7830 -82.8066 100° East 531 611 26,900 -3,360 Descending FlightAware ADS-B
05:11AM 35.7751 -82.7497 100° East 537 618 25,800 -2,820 Descending FlightAware ADS-B
05:11AM 35.7622 -82.6569 100° East 527 606 24,600 -2,220 Descending FlightAware ADS-B
05:12AM 35.7496 -82.5657 100° East 516 594 23,500 -2,100 Descending FlightAware ADS-B
05:12AM 35.7370 -82.4757 100° East 504 580 22,400 -2,100 Descending FlightAware ADS-B
05:13AM 35.7250 -82.3905 100° East 492 566 21,400 -2,100 Descending FlightAware ADS-B
05:13AM 35.7133 -82.3083 100° East 483 556 20,300 -2,220 Descending FlightAware ADS-B
05:14AM 35.7017 -82.2262 100° East 474 545 19,200 -2,220 Descending FlightAware ADS-B
05:14AM 35.6904 -82.1476 99° East 465 535 18,100 -1,380 Descending FlightAware ADS-B
05:15AM 35.6833 -82.0919 100° East 469 540 17,700 -1,560 Descending FAA TRACON SMA TRACON (SMA)
05:15AM 35.6667 -81.9750 100° East 442 509 16,100 -2,280 Descending FAA TRACON SMA TRACON (SMA)
05:16AM 35.6522 -81.8781 102° East 420 483 14,700 -1,800 Descending FAA TRACON SMA TRACON (SMA)
05:17AM 35.6364 -81.7858 101° East 403 464 13,700 -1,680 Descending FAA TRACON SMA TRACON (SMA)
05:17AM 35.6233 -81.7053 102° East 394 453 12,500 -1,860 Descending FAA TRACON SMA TRACON (SMA)
05:18AM 35.6078 -81.6172 101° East 383 441 11,300 -1,080 Descending FAA TRACON SMA TRACON (SMA)
05:19AM 35.5942 -81.5325 102° East 365 420 11,100 -420 Descending FAA TRACON SMA TRACON (SMA)
05:19AM 35.5817 -81.4617 102° East 350 403 10,800 -960 Descending FAA TRACON SMA TRACON (SMA)
05:20AM 35.5675 -81.3781 102° East 328 377 9,800 -1,320 Descending FAA TRACON SMA TRACON (SMA)
05:21AM 35.5564 -81.3131 102° East 319 367 9,100 -1,320 Descending FAA TRACON SMA TRACON (SMA)
05:22AM 35.5436 -81.2419 112° Southeast 310 357 8,100 -1,740 Descending FAA TRACON SMA TRACON (SMA)
05:22AM 35.5239 -81.1833 113° Southeast 303 349 6,800 -1,920 Descending FAA TRACON SMA TRACON (SMA)
05:23AM 35.5036 -81.1258 113° Southeast 297 342 5,700 -1,860 Descending FAA TRACON SMA TRACON (SMA)
05:24AM 35.4792 -81.0567 114° Southeast 284 327 4,300 -1,200 Descending FAA TRACON SMA TRACON (SMA)
05:24AM 35.4581 -80.9975 129° Southeast 274 315 4,100 -420 Descending FAA TRACON SMA TRACON (SMA)
05:25AM 35.4328 -80.9594 169° South 231 266 3,800 -540 Descending FAA TRACON SMA TRACON (SMA)
05:25AM 35.3989 -80.9514 175° South 188 216 3,400 -540 Descending FAA TRACON SMA TRACON (SMA)
05:26AM 35.3675 -80.9483 176° South 168 193 3,100 -180 Descending FAA TRACON SMA TRACON (SMA)
05:27AM 35.3394 -80.9458 176° South 165 190 3,200 -420 Climbing FAA TRACON SMA TRACON (SMA)
05:27AM 35.3108 -80.9433 176° South 153 176 2,600 -840 Descending FAA TRACON SMA TRACON (SMA)
05:28AM 35.2867 -80.9414 176° South 146 168 2,100 -780 Descending FAA TRACON SMA TRACON (SMA)
05:29AM 35.2592 -80.9392 176° South 143 165 1,600 -780 Descending FAA TRACON SMA TRACON (SMA)
05:29AM 35.2319 -80.9367 176° South 141 162 1,100 -780 Descending FAA TRACON SMA TRACON (SMA)